Location: Cudham
(51.3000°N, 0.0667°E)
Time: 15:11:20
(UTC+00:00)

USA 229 DEB - Pass Details

Date: 19 April 2026
Orbit: 844 x 1364 km, 63.4° (Epoch: 10 January)

Event Time Altitude Azimuth Distance (km) Brightness Sun altitude
Rises 00:17:52 0° 314° (NW) 3,924 7.2 -27.5°
Reaches altitude 10° 00:20:24 10° 315° (NW) 3,035 6.5 -27.4°
Maximum altitude 00:27:48 90° 290° (WNW) 1,249 3.9 -27.3°
Enters shadow 00:31:13 39° 137° (SE) 1,824 4.6 -27.2°
